Location: San Vito
(41.8833°N, 12.9833°E)
Time: 00:22:04
(UTC+00:00)

Cosmos 1697 Rocket - Pass Details

Date: 17 November 2019
Orbit: 834 x 842 km, 71.0° (Epoch: 14 December)

Event Time Altitude Azimuth Distance (km) Brightness Sun altitude
Exits shadow 04:01:47 15° 211° (SSW) 2,090 4.5 -21.8°
Drops below altitude 10° 04:02:59 10° 203° (SSW) 2,436 4.9 -21.6°
Sets 04:05:45 0° 191° (S) 3,365 5.8 -21.1°
